DW8633 Weather Reports


Display with metric or nautical units.
time (UTC)temp
F
wind
direction
speed
MPH
gust
MPH
rain 1hr
in
rain 24hr
in
rain mn
in
humidity
%
barometer
mb
20260906095045 67 360 0.0 6.0 0.00 0.00 0.00 92 932.1
20260906094544 67 360 4.0 7.0 0.00 0.00 0.00 92 932.2
20260906094043 67 360 4.0 7.0 0.00 0.00 0.00 92 932.1
20260906093543 67 360 4.0 7.0 0.00 0.00 0.00 92 932.0
20260906093143 67 360 2.0 8.0 0.00 0.00 0.00 92 932.0
20260906092543 67 360 3.0 8.0 0.00 0.00 0.00 92 932.1
20260906092042 68 360 4.0 8.0 0.00 0.00 0.00 92 932.0
20260906091541 68 360 5.0 8.0 0.00 0.00 0.00 92 932.1
20260906091043 68 360 5.0 8.0 0.00 0.00 0.00 91 932.2
20260906090540 68 360 5.0 8.0 0.00 0.00 0.00 92 932.3
20260906090040 68 360 4.0 7.0 0.00 0.00 0.00 91 932.3
20260906085540 68 360 2.0 7.0 0.00 0.00 0.00 91 932.2
20260906085038 68 360 2.0 8.0 0.00 0.00 0.00 91 932.1
20260906084538 68 360 4.0 8.0 0.00 0.00 0.00 91 932.1
20260906084038 68 360 5.0 8.0 0.00 0.00 0.00 91 932.2
20260906083537 68 360 5.0 8.0 0.00 0.00 0.00 91 932.2
20260906083137 68 360 4.0 9.0 0.00 0.00 0.00 91 932.3
20260906082536 68 360 4.0 9.0 0.00 0.00 0.00 91 932.2
20260906082036 68 360 5.0 9.0 0.00 0.00 0.00 90 932.3
20260906081538 68 360 3.0 6.0 0.00 0.00 0.00 90 932.2
20260906081036 68 360 3.0 6.0 0.00 0.00 0.00 89 932.1
20260906080534 68 360 2.0 6.0 0.00 0.00 0.00 89 932.3
20260906080034 69 360 3.0 6.0 0.00 0.00 0.00 89 932.4
20260906075533 69 360 0.0 6.0 0.00 0.00 0.00 88 932.4
20260906075030 69 360 2.0 6.0 0.00 0.00 0.00 88 932.5
20260906074533 69 360 1.0 6.0 0.00 0.00 0.00 88 932.6
20260906074033 70 360 1.0 9.0 0.00 0.00 0.00 88 932.6
20260906073527 70 360 3.0 9.0 0.00 0.00 0.00 88 932.6
20260906073127 70 360 6.0 14.0 0.00 0.00 0.00 87 932.6
20260906072529 70 360 5.0 14.0 0.00 0.00 0.00 87 932.6
20260906072027 70 360 6.0 14.0 0.00 0.00 0.00 87 932.6
20260906071527 70 360 7.0 13.0 0.00 0.00 0.00 87 932.6
20260906071028 70 360 6.0 13.0 0.00 0.00 0.00 87 932.6
20260906070528 71 360 9.0 14.0 0.00 0.00 0.00 87 932.6
20260906070025 71 360 7.0 14.0 0.00 0.00 0.00 87 932.7
20260906065524 70 360 5.0 10.0 0.00 0.00 0.00 87 932.7
20260906065024 71 360 6.0 13.0 0.00 0.00 0.00 87 932.7
20260906064528 71 360 5.0 13.0 0.00 0.00 0.00 86 932.5
20260906064021 71 360 4.0 8.0 0.00 0.00 0.00 87 932.7
20260906063520 71 360 5.0 8.0 0.00 0.00 0.00 87 932.7
20260906063119 70 360 2.0 6.0 0.00 0.00 0.00 86 932.7
20260906062519 71 360 2.0 5.0 0.00 0.00 0.00 87 932.8
20260906062019 71 360 1.0 5.0 0.00 0.00 0.00 86 932.8
20260906061519 71 360 2.0 5.0 0.00 0.00 0.00 86 932.8
20260906061019 71 360 2.0 7.0 0.00 0.00 0.00 86 932.7
20260906060518 71 360 2.0 7.0 0.00 0.00 0.00 86 932.7
20260906060018 71 360 3.0 7.0 0.00 0.00 0.00 85 932.6
20260906055518 71 360 4.0 11.0 0.00 0.00 0.00 86 932.7
20260906055017 71 360 6.0 11.0 0.00 0.00 0.00 86 932.7
20260906054517 71 360 3.0 7.0 0.00 0.00 0.00 86 932.7
20260906054016 71 360 4.0 9.0 0.00 0.00 0.00 86 932.6
20260906053516 71 360 4.0 9.0 0.00 0.00 0.00 86 932.7
20260906053021 71 360 1.0 9.0 0.00 0.00 0.00 86 932.6
20260906052515 71 360 0.0 9.0 0.00 0.00 0.00 86 932.6
20260906052015 71 360 5.0 9.0 0.00 0.00 0.00 86 932.5
20260906051515 71 360 4.0 7.0 0.00 0.00 0.00 86 932.5
20260906051015 71 360 3.0 9.0 0.00 0.00 0.00 86 932.5
20260906050516 71 360 5.0 9.0 0.00 0.00 0.00 85 932.6
20260906050043 71 360 4.0 8.0 0.00 0.00 0.00 85 932.5
20260906045515 71 360 3.0 8.0 0.00 0.00 0.00 85 932.5
20260906045014 71 360 3.0 7.0 0.00 0.00 0.00 85 932.5
20260906044514 71 360 3.0 7.0 0.00 0.00 0.00 85 932.6
20260906044014 71 360 3.0 7.0 0.00 0.00 0.00 84 932.6
20260906043513 71 360 4.0 9.0 0.00 0.00 0.00 84 932.6
20260906043114 70 360 4.0 6.0 0.00 0.00 0.00 84 932.7
20260906042514 71 360 3.0 7.0 0.00 0.00 0.00 83 932.9
20260906042014 71 360 4.0 7.0 0.00 0.00 0.00 83 932.8
20260906041516 71 360 4.0 9.0 0.00 0.00 0.00 83 932.8
20260906041014 71 360 5.0 10.0 0.00 0.00 0.00 83 932.8
20260906040513 71 360 6.0 10.0 0.00 0.00 0.00 82 932.8
20260906040013 71 360 6.0 10.0 0.00 0.00 0.00 82 932.8
20260906035512 72 360 6.0 10.0 0.00 0.00 0.00 82 932.9
20260906035012 72 360 6.0 10.0 0.00 0.00 0.00 81 932.8
20260906034514 72 360 7.0 10.0 0.00 0.00 0.00 81 932.8
20260906034014 72 360 6.0 9.0 0.00 0.00 0.00 81 932.8
20260906033512 72 360 7.0 12.0 0.00 0.00 0.00 82 932.8
20260906033112 71 360 5.0 8.0 0.00 0.00 0.00 82 932.8
20260906032511 71 360 5.0 8.0 0.00 0.00 0.00 81 932.9
20260906032013 71 360 2.0 6.0 0.00 0.00 0.00 81 932.8
20260906031514 71 360 2.0 5.0 0.00 0.00 0.00 81 933.0
20260906031011 71 360 1.0 6.0 0.00 0.00 0.00 81 933.0
20260906030514 71 360 3.0 6.0 0.00 0.00 0.00 81 933.0
20260906030010 71 360 3.0 5.0 0.00 0.00 0.00 81 933.0
20260906025509 71 360 3.0 5.0 0.00 0.00 0.00 80 933.0
20260906025013 71 360 2.0 4.0 0.00 0.00 0.00 80 933.0
20260906024510 71 360 3.0 4.0 0.00 0.00 0.00 80 933.0
20260906024009 71 360 2.0 5.0 0.00 0.00 0.00 79 932.9
20260906023509 71 360 2.0 5.0 0.00 0.00 0.00 79 933.0
20260906023129 71 360 4.0 6.0 0.00 0.00 0.00 78 932.8
20260906022508 71 360 4.0 6.0 0.00 0.00 0.00 78 932.7
20260906022009 71 360 4.0 6.0 0.00 0.00 0.00 77 932.7
20260906021509 71 360 4.0 5.0 0.00 0.00 0.00 76 932.7
20260906021009 72 360 4.0 5.0 0.00 0.00 0.00 76 932.7
20260906020511 72 360 3.0 5.0 0.00 0.00 0.00 75 932.6
20260906020008 73 360 3.0 4.0 0.00 0.00 0.00 75 932.4
20260906015505 73 360 2.0 5.0 0.00 0.00 0.00 74 932.4
20260906015005 73 360 3.0 5.0 0.00 0.00 0.00 73 932.3
20260906014509 74 360 3.0 6.0 0.00 0.00 0.00 73 932.2
20260906014004 75 360 4.0 7.0 0.00 0.00 0.00 72 932.3
20260906013504 75 360 4.0 8.0 0.00 0.00 0.00 71 932.2
20260906013104 76 360 5.0 7.0 0.00 0.00 0.00 69 932.1
20260906012503 77 360 5.0 7.0 0.00 0.00 0.00 69 932.1
20260906012005 77 5 5.0 8.0 0.00 0.00 0.00 68 932.1
20260906011506 78 5 5.0 9.0 0.00 0.00 0.00 68 932.0
20260906011002 78 16 5.0 9.0 0.00 0.00 0.00 67 931.9
20260906010505 79 22 5.0 9.0 0.00 0.00 0.00 67 931.8
20260906010003 79 21 5.0 11.0 0.00 0.00 0.00 66 931.8
20260906005502 79 31 6.0 11.0 0.00 0.00 0.00 66 931.8
20260906005002 80 36 6.0 11.0 0.00 0.00 0.00 65 931.8
20260906004503 80 40 7.0 12.0 0.00 0.00 0.00 65 931.8
20260906004004 80 21 7.0 12.0 0.00 0.00 0.00 64 931.6
20260906003502 80 10 9.0 12.0 0.00 0.00 0.00 64 931.6
20260906003109 81 17 8.0 12.0 0.00 0.00 0.00 64 931.5
20260906002501 81 23 8.0 12.0 0.00 0.00 0.00 63 931.4
20260906002002 81 13 7.0 12.0 0.00 0.00 0.00 63 931.5
20260906001502 82 355 8.0 13.0 0.00 0.00 0.00 62 931.5
20260906001003 82 15 7.0 13.0 0.00 0.00 0.00 62 931.5
20260906000502 82 20 10.0 13.0 0.00 0.00 0.00 61 931.6
20260906000101 83 32 9.0 13.0 0.00 0.00 0.00 61 931.5
20260906000002 83 360 8.0 13.0 0.00 0.00 0.00 61 931.4
20260905235601 83 22 9.0 13.0 0.00 0.00 0.00 61 931.5
20260905235101 84 5 8.0 12.0 0.00 0.00 0.00 60 931.4
20260905234614 84 9 7.0 13.0 0.00 0.00 0.00 60 931.4
20260905234100 84 20 7.0 13.0 0.00 0.00 0.00 59 931.5
20260905233600 85 355 7.0 12.0 0.00 0.00 0.00 59 931.4
20260905233100 85 350 8.0 13.0 0.00 0.00 0.00 59 931.5
20260905232100 85 360 8.0 13.0 0.00 0.00 0.00 59 931.4
20260905231600 85 17 8.0 12.0 0.00 0.00 0.00 58 931.4
20260905231102 85 348 7.0 13.0 0.00 0.00 0.00 57 931.3
20260905230600 85 10 9.0 13.0 0.00 0.00 0.00 57 931.2
20260905230100 86 23 9.0 12.0 0.00 0.00 0.00 56 931.2
20260905225604 86 9 5.0 10.0 0.00 0.00 0.00 58 931.1
20260905225102 86 74 6.0 13.0 0.00 0.00 0.00 57 931.1
20260905224609 86 42 8.0 13.0 0.00 0.00 0.00 57 931.1
20260905224059 86 58 5.0 14.0 0.00 0.00 0.00 57 931.0
20260905223558 86 38 8.0 14.0 0.00 0.00 0.00 56 931.1
20260905223059 87 355 11.0 16.0 0.00 0.00 0.00 54 931.0
20260905222058 87 32 9.0 15.0 0.00 0.00 0.00 55 931.0
20260905221558 87 336 8.0 12.0 0.00 0.00 0.00 54 931.0
20260905221058 87 313 7.0 11.0 0.00 0.00 0.00 54 931.1
20260905220556 87 57 6.0 12.0 0.00 0.00 0.00 54 931.2
20260905220056 87 34 9.0 12.0 0.00 0.00 0.00 54 931.3
20260905215556 87 342 6.0 10.0 0.00 0.00 0.00 54 931.2
20260905215056 87 10 6.0 10.0 0.00 0.00 0.00 54 931.3
20260905214605 87 360 4.0 7.0 0.00 0.00 0.00 55 931.3
20260905214055 87 55 3.0 10.0 0.00 0.00 0.00 55 931.3
20260905213555 87 351 5.0 15.0 0.00 0.00 0.00 55 931.3
20260905213057 87 360 2.0 9.0 0.00 0.00 0.00 55 931.3
20260905212155 87 342 2.0 9.0 0.00 0.00 0.00 54 931.3
20260905211554 87 28 5.0 11.0 0.00 0.00 0.00 55 931.3
20260905211053 87 19 7.0 11.0 0.00 0.00 0.00 55 931.3
20260905210553 86 74 2.0 10.0 0.00 0.00 0.00 56 931.2
20260905210053 86 30 7.0 10.0 0.00 0.00 0.00 56 931.3
20260905205552 86 90 3.0 8.0 0.00 0.00 0.00 56 931.2
20260905205055 86 61 2.0 8.0 0.00 0.00 0.00 56 931.2
20260905204551 86 45 4.0 14.0 0.00 0.00 0.00 56 931.2
20260905204052 86 18 6.0 14.0 0.00 0.00 0.00 56 931.3
20260905203555 86 333 6.0 11.0 0.00 0.00 0.00 56 931.3
20260905203051 85 300 4.0 10.0 0.00 0.00 0.00 57 931.3
20260905202051 85 335 6.0 10.0 0.00 0.00 0.00 57 931.4
20260905201551 85 338 1.0 11.0 0.00 0.00 0.00 57 931.4
20260905201049 85 360 7.0 11.0 0.00 0.00 0.00 57 931.4
20260905200549 85 331 6.0 10.0 0.00 0.00 0.00 57 931.5
20260905200054 85 35 4.0 9.0 0.00 0.00 0.00 58 931.4
20260905195549 85 338 5.0 8.0 0.00 0.00 0.00 57 931.4
20260905195048 85 344 4.0 8.0 0.00 0.00 0.00 58 931.3
20260905194554 85 39 3.0 8.0 0.00 0.00 0.00 58 931.3
20260905194047 84 29 3.0 9.0 0.00 0.00 0.00 58 931.3
20260905193547 84 65 5.0 11.0 0.00 0.00 0.00 58 931.3
20260905193046 84 355 4.0 10.0 0.00 0.00 0.00 59 931.3
20260905192045 84 360 5.0 10.0 0.00 0.00 0.00 59 931.3
20260905191547 84 76 4.0 8.0 0.00 0.00 0.00 59 931.3
20260905191045 83 22 5.0 8.0 0.00 0.00 0.00 60 931.5
20260905190547 83 351 3.0 8.0 0.00 0.00 0.00 60 931.5
20260905190044 83 360 2.0 10.0 0.00 0.00 0.00 61 931.6
20260905185547 83 355 7.0 12.0 0.00 0.00 0.00 61 931.6
20260905185043 83 355 9.0 12.0 0.00 0.00 0.00 61 931.6
20260905184601 83 67 3.0 9.0 0.00 0.00 0.00 61 931.5
20260905184042 83 5 5.0 11.0 0.00 0.00 0.00 62 931.6
20260905183549 83 355 8.0 11.0 0.00 0.00 0.00 61 931.5
20260905183043 83 49 0.0 8.0 0.00 0.00 0.00 61 931.6
20260905182046 82 330 4.0 12.0 0.00 0.00 0.00 62 931.6
20260905181541 82 10 5.0 13.0 0.00 0.00 0.00 63 931.6
20260905181041 82 15 7.0 12.0 0.00 0.00 0.00 63 931.5
20260905180540 81 117 5.0 12.0 0.00 0.00 0.00 63 931.5
20260905180039 81 94 6.0 12.0 0.00 0.00 0.00 64 931.5
20260905175539 81 103 5.0 11.0 0.00 0.00 0.00 64 931.6
20260905175039 81 53 7.0 11.0 0.00 0.00 0.00 64 931.6
20260905174544 80 51 5.0 10.0 0.00 0.00 0.00 65 931.6
20260905174039 81 355 6.0 10.0 0.00 0.00 0.00 64 931.6
20260905173538 81 329 5.0 11.0 0.00 0.00 0.00 63 931.8
20260905173037 80 12 3.0 8.0 0.00 0.00 0.00 65 931.8
20260905172036 80 57 4.0 6.0 0.00 0.00 0.00 66 931.9
20260905171536 80 61 2.0 7.0 0.00 0.00 0.00 67 932.0
20260905171034 79 62 2.0 7.0 0.00 0.00 0.00 67 932.0
20260905170534 79 55 5.0 7.0 0.00 0.00 0.00 66 932.1
20260905170032 79 138 2.0 6.0 0.00 0.00 0.00 67 932.1
20260905165531 79 124 4.0 7.0 0.00 0.00 0.00 68 932.1
20260905165030 78 179 4.0 7.0 0.00 0.00 0.00 69 931.8
20260905164529 78 247 3.0 7.0 0.00 0.00 0.00 69 931.9
20260905164029 78 59 3.0 8.0 0.00 0.00 0.00 70 931.8
20260905163528 77 65 3.0 8.0 0.00 0.00 0.00 70 931.8
20260905163128 77 114 4.0 12.0 0.00 0.00 0.00 70 931.8
20260905162025 77 95 4.0 12.0 0.00 0.00 0.00 71 931.4
20260905161527 77 98 8.0 12.0 0.00 0.00 0.00 71 931.1
20260905161025 76 78 7.0 14.0 0.00 0.00 0.00 73 931.0
20260905160523 76 109 8.0 14.0 0.00 0.00 0.00 73 931.0
20260905160039 75 100 6.0 11.0 0.00 0.00 0.00 73 931.0
20260905155522 75 92 8.0 11.0 0.00 0.00 0.00 73 930.9
20260905155019 75 114 6.0 10.0 0.00 0.00 0.00 74 931.0
20260905154518 75 96 8.0 10.0 0.00 0.00 0.00 74 931.1
20260905154017 74 112 5.0 11.0 0.00 0.00 0.00 75 931.0
20260905153516 74 115 7.0 11.0 0.00 0.00 0.00 76 930.9
20260905153016 73 90 7.0 10.0 0.00 0.00 0.00 76 930.9
20260905152018 73 90 7.0 10.0 0.00 0.00 0.00 77 931.2
20260905151515 73 99 6.0 10.0 0.00 0.00 0.00 77 931.2
20260905151015 73 92 6.0 10.0 0.00 0.00 0.00 78 931.3
20260905150511 72 86 6.0 10.0 0.00 0.00 0.00 79 931.3
20260905150021 72 360 6.0 10.0 0.00 0.00 0.00 79 931.4
20260905145512 71 360 8.0 14.0 0.00 0.00 0.00 80 931.1
20260905145010 71 360 8.0 15.0 0.00 0.00 0.00 81 931.1
20260905144535 71 360 9.0 18.0 0.00 0.00 0.00 81 931.0
20260905144012 70 360 11.0 18.0 0.00 0.00 0.00 82 930.8
20260905143511 70 360 9.0 16.0 0.00 0.00 0.00 82 930.8
20260905143018 69 360 8.0 14.0 0.00 0.00 0.00 85 930.8
20260905142012 68 360 10.0 15.0 0.00 0.00 0.00 85 931.0
20260905141509 68 360 9.0 15.0 0.00 0.00 0.00 86 930.9
20260905141009 68 360 8.0 11.0 0.00 0.00 0.00 88 931.0
20260905140508 67 360 5.0 10.0 0.00 0.00 0.00 89 931.1
20260905140008 66 360 6.0 10.0 0.00 0.00 0.00 91 931.1
20260905135507 66 360 4.0 7.0 0.00 0.00 0.00 92 931.1
20260905135009 65 360 3.0 7.0 0.00 0.00 0.00 93 931.1
20260905134513 64 360 0.0 4.0 0.00 0.00 0.00 93 931.1
20260905134007 63 360 1.0 5.0 0.00 0.00 0.00 93 931.1
20260905133505 62 360 2.0 5.0 0.00 0.00 0.00 94 931.2
20260905133008 61 360 2.0 4.0 0.00 0.00 0.00 93 931.2
20260905132004 60 250 2.0 6.0 0.00 0.00 0.00 93 930.9
20260905131506 60 360 4.0 6.0 0.00 0.00 0.00 93 930.8
20260905131004 59 360 4.0 6.0 0.00 0.00 0.00 93 930.7
20260905130503 59 360 0.0 5.0 0.00 0.00 0.00 93 930.6
20260905130002 58 360 2.0 6.0 0.00 0.00 0.00 93 930.5
20260905125503 58 360 3.0 6.0 0.00 0.00 0.00 93 930.5
20260905125100 58 360 4.0 6.0 0.00 0.00 0.00 92 930.3
20260905125002 58 360 4.0 6.0 0.00 0.00 0.00 92 930.2
20260905124600 58 360 4.0 5.0 0.00 0.00 0.00 92 930.1
20260905124059 58 360 2.0 5.0 0.00 0.00 0.00 92 930.0
20260905123604 58 360 2.0 5.0 0.00 0.00 0.00 92 930.1
20260905123101 58 360 2.0 5.0 0.00 0.00 0.00 92 930.1
20260905122058 58 360 0.0 5.0 0.00 0.00 0.00 92 929.9
20260905121556 58 360 2.0 6.0 0.00 0.00 0.00 92 929.8
20260905121056 58 360 4.0 6.0 0.00 0.00 0.00 91 929.8
20260905120554 59 360 4.0 5.0 0.00 0.00 0.00 92 929.7
20260905120058 59 360 3.0 5.0 0.00 0.00 0.00 92 929.7
20260905115557 59 360 3.0 5.0 0.00 0.00 0.00 91 929.5
20260905115055 59 360 3.0 5.0 0.00 0.00 0.00 92 929.5
20260905114624 59 360 1.0 5.0 0.00 0.00 0.00 92 929.4
20260905114051 59 360 2.0 6.0 0.00 0.00 0.00 92 929.2
20260905113551 59 360 1.0 7.0 0.00 0.00 0.00 92 929.3
20260905113051 59 360 3.0 5.0 0.00 0.00 0.00 92 929.3
20260905112049 59 360 4.0 7.0 0.00 0.00 0.00 91 929.1
20260905111553 59 360 4.0 7.0 0.00 0.00 0.00 91 929.1
20260905111049 60 360 4.0 6.0 0.00 0.00 0.00 91 928.9
20260905110547 60 360 4.0 8.0 0.00 0.00 0.00 91 928.8
20260905110048 60 360 6.0 8.0 0.00 0.00 0.00 91 928.8
20260905105547 60 360 2.0 5.0 0.00 0.00 0.00 90 928.8
20260905105046 60 360 4.0 5.0 0.00 0.00 0.00 90 928.6
20260905104544 60 360 3.0 5.0 0.00 0.00 0.00 90 928.6
20260905104044 61 360 4.0 5.0 0.00 0.00 0.00 90 928.6
20260905103545 61 360 1.0 4.0 0.00 0.00 0.00 91 928.7
20260905103043 60 360 0.0 0.0 0.00 0.00 0.00 89 928.5
20260905102043 61 360 0.0 0.0 0.00 0.00 0.00 90 928.4
20260905101543 62 360 0.0 0.0 0.00 0.00 0.00 91 928.4
20260905101041 61 360 0.0 0.0 0.00 0.00 0.00 90 928.2
20260905100540 61 360 0.0 0.0 0.00 0.00 0.00 89 928.1
20260905100056 61 360 0.0 0.0 0.00 0.00 0.00 88 927.9
20260905095539 61 360 0.0 0.0 0.00 0.00 0.00 87 927.9